Location: Drawsko Pomorskie
(53.5317°N, 15.8111°E)
Time: 03:26:57
(UTC+02:00)

ISS - Visible Passes

Search period start: 20 October 2019 00:00
Search period end: 29 October 2019 23:00
Orbit: 411 x 421 km, 51.6° (Epoch: 19 October)

Date Brightness Start Highest point End Pass type
(mag) Time Alt. Az. Time Alt. Az. Time Alt. Az.
24 Oct -0.6 06:51:56 10° SSE 06:53:20 12° SE 06:54:44 10° ESE visible
26 Oct -1.4 06:49:43 10° SSW 06:52:24 22° SSE 06:55:06 10° E visible
27 Oct -1.0 05:01:46 10° S 05:03:58 16° SE 05:06:09 10° ESE visible
28 Oct -0.9 04:14:29 10° SSE 04:15:32 11° SE 04:16:42 10° ESE visible
28 Oct -2.4 05:48:27 10° SW 05:51:35 36° SSE 05:54:42 10° E visible
29 Oct -2.0 05:01:04 16° SSW 05:03:02 28° SSE 05:05:59 10° E visible
